Regional Weather Roundup
Issued by NWS

Home | Current Version | Previous Version | Graphics & Text | Print | Product List | Glossary On
Versions: 1 2 3 4 5 6 7 8 9 10 11 12 13 14 15 16 17 18 19 20 21 22 23 24 25 26 27
745
ASUS45 KSLC 211110
RWRUT

UTAH REGIONAL WEATHER ROUNDUP
NATIONAL WEATHER SERVICE SALT LAKE CITY UT
500 AM MDT THU MAY 21 2015

UTZ001>011-023>025-211200-

NORTHERN UTAH

CITY           SKY/WX    TMP DP  RH WIND       PRES   REMARKS
BRIGHAM CITY   PTCLDY    52  44  72 N5        30.01F
HILL AFB       CLEAR     48  44  86 E18G29    30.01F
LOGAN          CLEAR     47  42  83 NE7       30.03S
OGDEN          CLEAR     48  43  82 SW3       30.00S
PROVO AIRPORT  CLEAR     45  39  81 E5        30.03R
SALT LAKE CITY CLEAR     49  46  90 S5        30.00F
VERNAL         CLEAR     45  38  76 W5        30.08R
WENDOVER       CLEAR     48  43  81 CALM      29.99F
HEBER CITY     CLEAR     36  34  93 SE3       30.09S
WEST JORDAN    CLEAR     45  45 100 CALM      30.02S

$$

UTZ012>022-026-027-211200-

SOUTHERN/CENTRAL UTAH

CITY           SKY/WX    TMP DP  RH WIND       PRES   REMARKS
BLANDING       CLOUDY    52  30  42 NE5       30.12R
BRYCE CANYON   CLOUDY    33  26  75 W5        30.10R WCI  29
CEDAR CITY     MOCLDY    40  32  73 CALM      29.99S
DELTA          MOCLDY    46  42  85 NE7       29.98S
HANKSVILLE     MOCLDY    45  32  61 CALM      29.98R
MILFORD        PTCLDY    38  33  82 W6        29.98S WCI  33
MOAB/CYNLANDS  CLEAR     53  37  54 SE8       29.94F
PRICE          CLEAR     49  34  56 W3        30.02F
ST GEORGE      SUNNY     57  27  30 SE5       29.90S

$$

REGIONAL REPORTS     COLORADO/ARIZONA

CITY           SKY/WX    TMP DP  RH WIND       PRES   REMARKS
CRAIG, CO      CLEAR     34  32  92 CALM      30.13R
GRAND JUNCTION PTCLDY    48  40  73 SE3       30.01R
RIFLE          CLEAR     40  35  83 CALM      30.08S
MONTROSE       MOCLDY    47  39  74 E8        30.07S
CORTEZ         CLEAR     52  38  58 SW5       30.07R
PAGE, AZ       NOT AVBL
GRAND CANYON   CLOUDY    42  33  70 CALM      30.07S
KINGMAN        CLOUDY    62  24  23 SE12      29.89S
FLAGSTAFF      CLOUDY    40  33  76 CALM      30.09S

$$

REGIONAL REPORTS    NEVADA/IDAHO/WYOMING

CITY           SKY/WX    TMP DP  RH WIND       PRES   REMARKS
LAS VEGAS, NV  MOCLDY    67  23  19 S12       29.77S
ELY            CLOUDY    33  30  88 CALM      30.02F
ELKO           MOCLDY    42  40  92 CALM      29.98S
POCATELLO, ID  CLEAR     48  45  89 E3        30.03F
BURLEY         CLOUDY    48  45  89 CALM      29.97F
EVANSTON, WY   CLEAR     39  37  92 E12       30.12F WCI  32
ROCK SPRINGS   MOCLDY    37  36  96 NE7       30.16R WCI  32
KEMMERER       CLOUDY    37  37 100 E7        30.16S WCI  32

$$



USA.gov is the U.S. government's official web portal to all federal, state and local government web resources and services.